iso_date,epoch_date,Year,Hour,Min,DOY,POS_DOY,Lat,Lon,BP,Ts,Ta,has_bp,has_ts,has_ta,BuoyID,Buoy_Type,Buoy_Owner,Logistics,Hemisphere
2020-07-16T00:09:56Z,1594858196,2020,0,10,198.0069,198.0069,79.65988,4.83967,-999.00,-999.00,-999.0,no,no,no,300534060651190,NOMAD,AWI/USIABP,MOSAiC,North
2020-07-16T00:20:00Z,1594858801,2020,0,20,198.0139,198.0139,79.65972,4.83904,-999.00,-999.00,-999.0,no,no,no,300534060651190,NOMAD,AWI/USIABP,MOSAiC,North
2020-07-16T00:29:57Z,1594859397,2020,0,30,198.0208,198.0208,79.65958,4.83875,-999.00,-999.00,-999.0,no,no,no,300534060651190,NOMAD,AWI/USIABP,MOSAiC,North
2020-07-16T00:40:01Z,1594860002,2020,0,40,198.0278,198.0278,79.65944,4.83765,-999.00,-999.00,-999.0,no,no,no,300534060651190,NOMAD,AWI/USIABP,MOSAiC,North
2020-07-16T00:49:58Z,1594860598,2020,0,50,198.0347,198.0347,79.65936,4.83533,-999.00,-999.00,-999.0,no,no,no,300534060651190,NOMAD,AWI/USIABP,MOSAiC,North
2020-07-16T01:00:02Z,1594861203,2020,1,0,198.0417,198.0417,79.65932,4.83243,-999.00,-999.00,-999.0,no,no,no,300534060651190,NOMAD,AWI/USIABP,MOSAiC,North
2020-07-16T01:09:59Z,1594861799,2020,1,10,198.0486,198.0486,79.65926,4.82911,-999.00,-999.00,-999.0,no,no,no,300534060651190,NOMAD,AWI/USIABP,MOSAiC,North
2020-07-16T01:20:03Z,1594862404,2020,1,20,198.0556,198.0556,79.65919,4.82685,-999.00,-999.00,-999.0,no,no,no,300534060651190,NOMAD,AWI/USIABP,MOSAiC,North
2020-07-16T01:30:00Z,1594863000,2020,1,30,198.0625,198.0625,79.65922,4.82455,-999.00,-999.00,-999.0,no,no,no,300534060651190,NOMAD,AWI/USIABP,MOSAiC,North
2020-07-16T01:39:56Z,1594863596,2020,1,40,198.0694,198.0694,79.65925,4.82174,-999.00,-999.00,-999.0,no,no,no,300534060651190,NOMAD,AWI/USIABP,MOSAiC,North
2020-07-16T01:50:00Z,1594864201,2020,1,50,198.0764,198.0764,79.65934,4.8188,-999.00,-999.00,-999.0,no,no,no,300534060651190,NOMAD,AWI/USIABP,MOSAiC,North
2020-07-16T01:59:57Z,1594864797,2020,2,0,198.0833,198.0833,79.65953,4.81453,-999.00,-999.00,-999.0,no,no,no,300534060651190,NOMAD,AWI/USIABP,MOSAiC,North
2020-07-16T02:10:01Z,1594865402,2020,2,10,198.0903,198.0903,79.65967,4.81051,-999.00,-999.00,-999.0,no,no,no,300534060651190,NOMAD,AWI/USIABP,MOSAiC,North
2020-07-16T02:19:58Z,1594865998,2020,2,20,198.0972,198.0972,79.65978,4.80651,-999.00,-999.00,-999.0,no,no,no,300534060651190,NOMAD,AWI/USIABP,MOSAiC,North
2020-07-16T02:30:02Z,1594866603,2020,2,30,198.1042,198.1042,79.66,4.80339,-999.00,-999.00,-999.0,no,no,no,300534060651190,NOMAD,AWI/USIABP,MOSAiC,North
2020-07-16T02:39:59Z,1594867199,2020,2,40,198.1111,198.1111,79.66015,4.80061,-999.00,-999.00,-999.0,no,no,no,300534060651190,NOMAD,AWI/USIABP,MOSAiC,North
2020-07-16T02:50:03Z,1594867804,2020,2,50,198.1181,198.1181,79.66022,4.79842,-999.00,-999.00,-999.0,no,no,no,300534060651190,NOMAD,AWI/USIABP,MOSAiC,North
2020-07-16T03:00:00Z,1594868400,2020,3,0,198.125,198.125,79.66045,4.79664,-999.00,-999.00,-999.0,no,no,no,300534060651190,NOMAD,AWI/USIABP,MOSAiC,North
2020-07-16T03:09:56Z,1594868996,2020,3,10,198.1319,198.1319,79.66063,4.79531,-999.00,-999.00,-999.0,no,no,no,300534060651190,NOMAD,AWI/USIABP,MOSAiC,North
2020-07-16T03:20:00Z,1594869601,2020,3,20,198.1389,198.1389,79.66092,4.79488,-999.00,-999.00,-999.0,no,no,no,300534060651190,NOMAD,AWI/USIABP,MOSAiC,North
2020-07-16T03:29:57Z,1594870197,2020,3,30,198.1458,198.1458,79.66126,4.79375,-999.00,-999.00,-999.0,no,no,no,300534060651190,NOMAD,AWI/USIABP,MOSAiC,North
2020-07-16T03:40:01Z,1594870802,2020,3,40,198.1528,198.1528,79.66154,4.79364,-999.00,-999.00,-999.0,no,no,no,300534060651190,NOMAD,AWI/USIABP,MOSAiC,North
2020-07-16T03:49:58Z,1594871398,2020,3,50,198.1597,198.1597,79.66182,4.79314,-999.00,-999.00,-999.0,no,no,no,300534060651190,NOMAD,AWI/USIABP,MOSAiC,North
2020-07-16T04:00:02Z,1594872003,2020,4,0,198.1667,198.1667,79.66197,4.79386,-999.00,-999.00,-999.0,no,no,no,300534060651190,NOMAD,AWI/USIABP,MOSAiC,North
2020-07-16T04:09:59Z,1594872599,2020,4,10,198.1736,198.1736,79.6621,4.7947,-999.00,-999.00,-999.0,no,no,no,300534060651190,NOMAD,AWI/USIABP,MOSAiC,North
2020-07-16T04:20:03Z,1594873204,2020,4,20,198.1806,198.1806,79.66204,4.79525,-999.00,-999.00,-999.0,no,no,no,300534060651190,NOMAD,AWI/USIABP,MOSAiC,North
2020-07-16T04:30:00Z,1594873800,2020,4,30,198.1875,198.1875,79.6621,4.7959,-999.00,-999.00,-999.0,no,no,no,300534060651190,NOMAD,AWI/USIABP,MOSAiC,North
2020-07-16T04:39:56Z,1594874396,2020,4,40,198.1944,198.1944,79.66222,4.79706,-999.00,-999.00,-999.0,no,no,no,300534060651190,NOMAD,AWI/USIABP,MOSAiC,North
2020-07-16T04:50:00Z,1594875001,2020,4,50,198.2014,198.2014,79.66222,4.79878,-999.00,-999.00,-999.0,no,no,no,300534060651190,NOMAD,AWI/USIABP,MOSAiC,North
2020-07-16T04:59:57Z,1594875597,2020,5,0,198.2083,198.2083,79.66223,4.80115,-999.00,-999.00,-999.0,no,no,no,300534060651190,NOMAD,AWI/USIABP,MOSAiC,North
2020-07-16T05:10:01Z,1594876202,2020,5,10,198.2153,198.2153,79.66201,4.80225,-999.00,-999.00,-999.0,no,no,no,300534060651190,NOMAD,AWI/USIABP,MOSAiC,North
2020-07-16T05:19:58Z,1594876798,2020,5,20,198.2222,198.2222,79.66175,4.80341,-999.00,-999.00,-999.0,no,no,no,300534060651190,NOMAD,AWI/USIABP,MOSAiC,North
2020-07-16T05:30:02Z,1594877403,2020,5,30,198.2292,198.2292,79.6615,4.80438,-999.00,-999.00,-999.0,no,no,no,300534060651190,NOMAD,AWI/USIABP,MOSAiC,North
2020-07-16T05:39:59Z,1594877999,2020,5,40,198.2361,198.2361,79.66129,4.80526,-999.00,-999.00,-999.0,no,no,no,300534060651190,NOMAD,AWI/USIABP,MOSAiC,North
2020-07-16T05:50:03Z,1594878604,2020,5,50,198.2431,198.2431,79.66095,4.80671,-999.00,-999.00,-999.0,no,no,no,300534060651190,NOMAD,AWI/USIABP,MOSAiC,North
2020-07-16T06:00:00Z,1594879200,2020,6,0,198.25,198.25,79.66065,4.80776,-999.00,-999.00,-999.0,no,no,no,300534060651190,NOMAD,AWI/USIABP,MOSAiC,North
2020-07-16T06:09:56Z,1594879796,2020,6,10,198.2569,198.2569,79.66045,4.80804,-999.00,-999.00,-999.0,no,no,no,300534060651190,NOMAD,AWI/USIABP,MOSAiC,North
2020-07-16T06:20:00Z,1594880401,2020,6,20,198.2639,198.2639,79.66023,4.80886,-999.00,-999.00,-999.0,no,no,no,300534060651190,NOMAD,AWI/USIABP,MOSAiC,North
2020-07-16T06:29:57Z,1594880997,2020,6,30,198.2708,198.2708,79.66008,4.80888,-999.00,-999.00,-999.0,no,no,no,300534060651190,NOMAD,AWI/USIABP,MOSAiC,North
2020-07-16T06:40:01Z,1594881602,2020,6,40,198.2778,198.2778,79.65991,4.80837,-999.00,-999.00,-999.0,no,no,no,300534060651190,NOMAD,AWI/USIABP,MOSAiC,North
2020-07-16T06:49:58Z,1594882198,2020,6,50,198.2847,198.2847,79.65972,4.80867,-999.00,-999.00,-999.0,no,no,no,300534060651190,NOMAD,AWI/USIABP,MOSAiC,North
2020-07-16T07:00:02Z,1594882803,2020,7,0,198.2917,198.2917,79.6595,4.80859,-999.00,-999.00,-999.0,no,no,no,300534060651190,NOMAD,AWI/USIABP,MOSAiC,North
2020-07-16T07:09:59Z,1594883399,2020,7,10,198.2986,198.2986,79.65929,4.80898,-999.00,-999.00,-999.0,no,no,no,300534060651190,NOMAD,AWI/USIABP,MOSAiC,North
2020-07-16T07:20:03Z,1594884004,2020,7,20,198.3056,198.3056,79.65912,4.81045,-999.00,-999.00,-999.0,no,no,no,300534060651190,NOMAD,AWI/USIABP,MOSAiC,North
2020-07-16T07:30:00Z,1594884600,2020,7,30,198.3125,198.3125,79.65904,4.81166,-999.00,-999.00,-999.0,no,no,no,300534060651190,NOMAD,AWI/USIABP,MOSAiC,North
2020-07-16T07:39:56Z,1594885196,2020,7,40,198.3194,198.3194,79.6587,4.81282,-999.00,-999.00,-999.0,no,no,no,300534060651190,NOMAD,AWI/USIABP,MOSAiC,North
2020-07-16T07:50:00Z,1594885801,2020,7,50,198.3264,198.3264,79.65846,4.81361,-999.00,-999.00,-999.0,no,no,no,300534060651190,NOMAD,AWI/USIABP,MOSAiC,North
2020-07-16T07:59:57Z,1594886397,2020,8,0,198.3333,198.3333,79.65814,4.81461,-999.00,-999.00,-999.0,no,no,no,300534060651190,NOMAD,AWI/USIABP,MOSAiC,North
2020-07-16T08:10:01Z,1594887002,2020,8,10,198.3403,198.3403,79.65792,4.81589,-999.00,-999.00,-999.0,no,no,no,300534060651190,NOMAD,AWI/USIABP,MOSAiC,North
2020-07-16T08:19:58Z,1594887598,2020,8,20,198.3472,198.3472,79.65759,4.8175,-999.00,-999.00,-999.0,no,no,no,300534060651190,NOMAD,AWI/USIABP,MOSAiC,North
2020-07-16T08:30:02Z,1594888203,2020,8,30,198.3542,198.3542,79.65713,4.81957,-999.00,-999.00,-999.0,no,no,no,300534060651190,NOMAD,AWI/USIABP,MOSAiC,North
2020-07-16T08:39:59Z,1594888799,2020,8,40,198.3611,198.3611,79.65678,4.82139,-999.00,-999.00,-999.0,no,no,no,300534060651190,NOMAD,AWI/USIABP,MOSAiC,North
2020-07-16T08:50:03Z,1594889404,2020,8,50,198.3681,198.3681,79.65629,4.82248,-999.00,-999.00,-999.0,no,no,no,300534060651190,NOMAD,AWI/USIABP,MOSAiC,North
2020-07-16T09:00:00Z,1594890000,2020,9,0,198.375,198.375,79.65583,4.82367,-999.00,-999.00,-999.0,no,no,no,300534060651190,NOMAD,AWI/USIABP,MOSAiC,North
2020-07-16T09:09:56Z,1594890596,2020,9,10,198.3819,198.3819,79.65542,4.82439,-999.00,-999.00,-999.0,no,no,no,300534060651190,NOMAD,AWI/USIABP,MOSAiC,North
2020-07-16T09:20:00Z,1594891201,2020,9,20,198.3889,198.3889,79.65491,4.82433,-999.00,-999.00,-999.0,no,no,no,300534060651190,NOMAD,AWI/USIABP,MOSAiC,North
2020-07-16T09:29:57Z,1594891797,2020,9,30,198.3958,198.3958,79.65458,4.82405,-999.00,-999.00,-999.0,no,no,no,300534060651190,NOMAD,AWI/USIABP,MOSAiC,North
2020-07-16T09:40:01Z,1594892402,2020,9,40,198.4028,198.4028,79.65419,4.8244,-999.00,-999.00,-999.0,no,no,no,300534060651190,NOMAD,AWI/USIABP,MOSAiC,North
2020-07-16T09:49:58Z,1594892998,2020,9,50,198.4097,198.4097,79.65367,4.82463,-999.00,-999.00,-999.0,no,no,no,300534060651190,NOMAD,AWI/USIABP,MOSAiC,North
2020-07-16T10:00:02Z,1594893603,2020,10,0,198.4167,198.4167,79.65326,4.82458,-999.00,-999.00,-999.0,no,no,no,300534060651190,NOMAD,AWI/USIABP,MOSAiC,North
2020-07-16T10:09:59Z,1594894199,2020,10,10,198.4236,198.4236,79.65286,4.82325,-999.00,-999.00,-999.0,no,no,no,300534060651190,NOMAD,AWI/USIABP,MOSAiC,North
2020-07-16T10:20:03Z,1594894804,2020,10,20,198.4306,198.4306,79.65257,4.8224,-999.00,-999.00,-999.0,no,no,no,300534060651190,NOMAD,AWI/USIABP,MOSAiC,North
2020-07-16T10:30:00Z,1594895400,2020,10,30,198.4375,198.4375,79.65229,4.82162,-999.00,-999.00,-999.0,no,no,no,300534060651190,NOMAD,AWI/USIABP,MOSAiC,North
2020-07-16T10:39:56Z,1594895996,2020,10,40,198.4444,198.4444,79.65198,4.82019,-999.00,-999.00,-999.0,no,no,no,300534060651190,NOMAD,AWI/USIABP,MOSAiC,North
2020-07-16T10:50:00Z,1594896601,2020,10,50,198.4514,198.4514,79.65178,4.81941,-999.00,-999.00,-999.0,no,no,no,300534060651190,NOMAD,AWI/USIABP,MOSAiC,North
2020-07-16T10:59:57Z,1594897197,2020,11,0,198.4583,198.4583,79.65163,4.81814,-999.00,-999.00,-999.0,no,no,no,300534060651190,NOMAD,AWI/USIABP,MOSAiC,North
2020-07-16T11:10:01Z,1594897802,2020,11,10,198.4653,198.4653,79.65136,4.81684,-999.00,-999.00,-999.0,no,no,no,300534060651190,NOMAD,AWI/USIABP,MOSAiC,North
2020-07-16T11:19:58Z,1594898398,2020,11,20,198.4722,198.4722,79.65121,4.81549,-999.00,-999.00,-999.0,no,no,no,300534060651190,NOMAD,AWI/USIABP,MOSAiC,North
2020-07-16T11:30:02Z,1594899003,2020,11,30,198.4792,198.4792,79.65096,4.81379,-999.00,-999.00,-999.0,no,no,no,300534060651190,NOMAD,AWI/USIABP,MOSAiC,North
2020-07-16T11:39:59Z,1594899599,2020,11,40,198.4861,198.4861,79.65075,4.81199,-999.00,-999.00,-999.0,no,no,no,300534060651190,NOMAD,AWI/USIABP,MOSAiC,North
2020-07-16T11:50:03Z,1594900204,2020,11,50,198.4931,198.4931,79.65049,4.81022,-999.00,-999.00,-999.0,no,no,no,300534060651190,NOMAD,AWI/USIABP,MOSAiC,North
2020-07-16T12:00:00Z,1594900800,2020,12,0,198.5,198.5,79.65017,4.80909,-999.00,-999.00,-999.0,no,no,no,300534060651190,NOMAD,AWI/USIABP,MOSAiC,North
2020-07-16T12:09:56Z,1594901396,2020,12,10,198.5069,198.5069,79.6499,4.80708,-999.00,-999.00,-999.0,no,no,no,300534060651190,NOMAD,AWI/USIABP,MOSAiC,North
2020-07-16T12:20:00Z,1594902001,2020,12,20,198.5139,198.5139,79.64972,4.80486,-999.00,-999.00,-999.0,no,no,no,300534060651190,NOMAD,AWI/USIABP,MOSAiC,North
2020-07-16T12:29:57Z,1594902597,2020,12,30,198.5208,198.5208,79.64949,4.80251,-999.00,-999.00,-999.0,no,no,no,300534060651190,NOMAD,AWI/USIABP,MOSAiC,North
2020-07-16T12:40:01Z,1594903202,2020,12,40,198.5278,198.5278,79.6492,4.79938,-999.00,-999.00,-999.0,no,no,no,300534060651190,NOMAD,AWI/USIABP,MOSAiC,North
2020-07-16T12:49:58Z,1594903798,2020,12,50,198.5347,198.5347,79.649,4.79702,-999.00,-999.00,-999.0,no,no,no,300534060651190,NOMAD,AWI/USIABP,MOSAiC,North
2020-07-16T13:00:02Z,1594904403,2020,13,0,198.5417,198.5417,79.64879,4.79372,-999.00,-999.00,-999.0,no,no,no,300534060651190,NOMAD,AWI/USIABP,MOSAiC,North
2020-07-16T13:09:59Z,1594904999,2020,13,10,198.5486,198.5486,79.64851,4.79063,-999.00,-999.00,-999.0,no,no,no,300534060651190,NOMAD,AWI/USIABP,MOSAiC,North
2020-07-16T13:20:03Z,1594905604,2020,13,20,198.5556,198.5556,79.64827,4.78788,-999.00,-999.00,-999.0,no,no,no,300534060651190,NOMAD,AWI/USIABP,MOSAiC,North
2020-07-16T13:30:00Z,1594906200,2020,13,30,198.5625,198.5625,79.64815,4.78421,-999.00,-999.00,-999.0,no,no,no,300534060651190,NOMAD,AWI/USIABP,MOSAiC,North
2020-07-16T13:39:56Z,1594906796,2020,13,40,198.5694,198.5694,79.64805,4.77992,-999.00,-999.00,-999.0,no,no,no,300534060651190,NOMAD,AWI/USIABP,MOSAiC,North
2020-07-16T13:50:00Z,1594907401,2020,13,50,198.5764,198.5764,79.64796,4.77605,-999.00,-999.00,-999.0,no,no,no,300534060651190,NOMAD,AWI/USIABP,MOSAiC,North
2020-07-16T13:59:57Z,1594907997,2020,14,0,198.5833,198.5833,79.64792,4.77242,-999.00,-999.00,-999.0,no,no,no,300534060651190,NOMAD,AWI/USIABP,MOSAiC,North
2020-07-16T14:10:01Z,1594908602,2020,14,10,198.5903,198.5903,79.64781,4.76912,-999.00,-999.00,-999.0,no,no,no,300534060651190,NOMAD,AWI/USIABP,MOSAiC,North
2020-07-16T14:19:58Z,1594909198,2020,14,20,198.5972,198.5972,79.64761,4.76547,-999.00,-999.00,-999.0,no,no,no,300534060651190,NOMAD,AWI/USIABP,MOSAiC,North
2020-07-16T14:30:02Z,1594909803,2020,14,30,198.6042,198.6042,79.64737,4.76155,-999.00,-999.00,-999.0,no,no,no,300534060651190,NOMAD,AWI/USIABP,MOSAiC,North
2020-07-16T14:39:59Z,1594910399,2020,14,40,198.6111,198.6111,79.64705,4.75763,-999.00,-999.00,-999.0,no,no,no,300534060651190,NOMAD,AWI/USIABP,MOSAiC,North
2020-07-16T14:50:03Z,1594911004,2020,14,50,198.6181,198.6181,79.6468,4.75411,-999.00,-999.00,-999.0,no,no,no,300534060651190,NOMAD,AWI/USIABP,MOSAiC,North
2020-07-16T15:00:00Z,1594911600,2020,15,0,198.625,198.625,79.64672,4.75114,-999.00,-999.00,-999.0,no,no,no,300534060651190,NOMAD,AWI/USIABP,MOSAiC,North
2020-07-16T15:09:56Z,1594912196,2020,15,10,198.6319,198.6319,79.64678,4.74805,-999.00,-999.00,-999.0,no,no,no,300534060651190,NOMAD,AWI/USIABP,MOSAiC,North
2020-07-16T15:20:00Z,1594912801,2020,15,20,198.6389,198.6389,79.64705,4.74499,-999.00,-999.00,-999.0,no,no,no,300534060651190,NOMAD,AWI/USIABP,MOSAiC,North
2020-07-16T15:29:57Z,1594913397,2020,15,30,198.6458,198.6458,79.64731,4.74108,-999.00,-999.00,-999.0,no,no,no,300534060651190,NOMAD,AWI/USIABP,MOSAiC,North
2020-07-16T15:40:01Z,1594914002,2020,15,40,198.6528,198.6528,79.64751,4.73825,-999.00,-999.00,-999.0,no,no,no,300534060651190,NOMAD,AWI/USIABP,MOSAiC,North
2020-07-16T15:49:58Z,1594914598,2020,15,50,198.6597,198.6597,79.64785,4.73514,-999.00,-999.00,-999.0,no,no,no,300534060651190,NOMAD,AWI/USIABP,MOSAiC,North
2020-07-16T16:00:02Z,1594915203,2020,16,0,198.6667,198.6667,79.64829,4.73265,-999.00,-999.00,-999.0,no,no,no,300534060651190,NOMAD,AWI/USIABP,MOSAiC,North
2020-07-16T16:09:59Z,1594915799,2020,16,10,198.6736,198.6736,79.6487,4.73014,-999.00,-999.00,-999.0,no,no,no,300534060651190,NOMAD,AWI/USIABP,MOSAiC,North
2020-07-16T16:20:03Z,1594916404,2020,16,20,198.6806,198.6806,79.64931,4.72853,-999.00,-999.00,-999.0,no,no,no,300534060651190,NOMAD,AWI/USIABP,MOSAiC,North
2020-07-16T16:30:00Z,1594917000,2020,16,30,198.6875,198.6875,79.65003,4.72852,-999.00,-999.00,-999.0,no,no,no,300534060651190,NOMAD,AWI/USIABP,MOSAiC,North
2020-07-16T16:39:56Z,1594917596,2020,16,40,198.6944,198.6944,79.65053,4.72842,-999.00,-999.00,-999.0,no,no,no,300534060651190,NOMAD,AWI/USIABP,MOSAiC,North
2020-07-16T16:50:00Z,1594918201,2020,16,50,198.7014,198.7014,79.65123,4.72841,-999.00,-999.00,-999.0,no,no,no,300534060651190,NOMAD,AWI/USIABP,MOSAiC,North
2020-07-16T16:59:57Z,1594918797,2020,17,0,198.7083,198.7083,79.65199,4.72875,-999.00,-999.00,-999.0,no,no,no,300534060651190,NOMAD,AWI/USIABP,MOSAiC,North
2020-07-16T17:10:01Z,1594919402,2020,17,10,198.7153,198.7153,79.65281,4.73012,-999.00,-999.00,-999.0,no,no,no,300534060651190,NOMAD,AWI/USIABP,MOSAiC,North
2020-07-16T17:19:58Z,1594919998,2020,17,20,198.7222,198.7222,79.65357,4.73216,-999.00,-999.00,-999.0,no,no,no,300534060651190,NOMAD,AWI/USIABP,MOSAiC,North
2020-07-16T17:30:02Z,1594920603,2020,17,30,198.7292,198.7292,79.65422,4.73352,-999.00,-999.00,-999.0,no,no,no,300534060651190,NOMAD,AWI/USIABP,MOSAiC,North
2020-07-16T17:39:59Z,1594921199,2020,17,40,198.7361,198.7361,79.65493,4.73514,-999.00,-999.00,-999.0,no,no,no,300534060651190,NOMAD,AWI/USIABP,MOSAiC,North
2020-07-16T17:50:03Z,1594921804,2020,17,50,198.7431,198.7431,79.65564,4.73723,-999.00,-999.00,-999.0,no,no,no,300534060651190,NOMAD,AWI/USIABP,MOSAiC,North
2020-07-16T18:00:00Z,1594922400,2020,18,0,198.75,198.75,79.65634,4.74017,-999.00,-999.00,-999.0,no,no,no,300534060651190,NOMAD,AWI/USIABP,MOSAiC,North
2020-07-16T18:09:56Z,1594922996,2020,18,10,198.7569,198.7569,79.65704,4.74355,-999.00,-999.00,-999.0,no,no,no,300534060651190,NOMAD,AWI/USIABP,MOSAiC,North
2020-07-16T18:20:00Z,1594923601,2020,18,20,198.7639,198.7639,79.65768,4.74757,-999.00,-999.00,-999.0,no,no,no,300534060651190,NOMAD,AWI/USIABP,MOSAiC,North
2020-07-16T18:29:57Z,1594924197,2020,18,30,198.7708,198.7708,79.65825,4.75201,-999.00,-999.00,-999.0,no,no,no,300534060651190,NOMAD,AWI/USIABP,MOSAiC,North
2020-07-16T18:40:01Z,1594924802,2020,18,40,198.7778,198.7778,79.65861,4.75581,-999.00,-999.00,-999.0,no,no,no,300534060651190,NOMAD,AWI/USIABP,MOSAiC,North
2020-07-16T18:49:58Z,1594925398,2020,18,50,198.7847,198.7847,79.65914,4.75989,-999.00,-999.00,-999.0,no,no,no,300534060651190,NOMAD,AWI/USIABP,MOSAiC,North
2020-07-16T19:00:02Z,1594926003,2020,19,0,198.7917,198.7917,79.65956,4.76336,-999.00,-999.00,-999.0,no,no,no,300534060651190,NOMAD,AWI/USIABP,MOSAiC,North
2020-07-16T19:09:59Z,1594926599,2020,19,10,198.7986,198.7986,79.65998,4.76692,-999.00,-999.00,-999.0,no,no,no,300534060651190,NOMAD,AWI/USIABP,MOSAiC,North
2020-07-16T19:20:03Z,1594927204,2020,19,20,198.8056,198.8056,79.66036,4.77015,-999.00,-999.00,-999.0,no,no,no,300534060651190,NOMAD,AWI/USIABP,MOSAiC,North
2020-07-16T19:30:00Z,1594927800,2020,19,30,198.8125,198.8125,79.66055,4.77407,-999.00,-999.00,-999.0,no,no,no,300534060651190,NOMAD,AWI/USIABP,MOSAiC,North
2020-07-16T19:39:56Z,1594928396,2020,19,40,198.8194,198.8194,79.66077,4.77713,-999.00,-999.00,-999.0,no,no,no,300534060651190,NOMAD,AWI/USIABP,MOSAiC,North
2020-07-16T19:50:00Z,1594929001,2020,19,50,198.8264,198.8264,79.66101,4.78111,-999.00,-999.00,-999.0,no,no,no,300534060651190,NOMAD,AWI/USIABP,MOSAiC,North
2020-07-16T19:59:57Z,1594929597,2020,20,0,198.8333,198.8333,79.66123,4.78463,-999.00,-999.00,-999.0,no,no,no,300534060651190,NOMAD,AWI/USIABP,MOSAiC,North
2020-07-16T20:10:01Z,1594930202,2020,20,10,198.8403,198.8403,79.66151,4.7885,-999.00,-999.00,-999.0,no,no,no,300534060651190,NOMAD,AWI/USIABP,MOSAiC,North
2020-07-16T20:19:58Z,1594930798,2020,20,20,198.8472,198.8472,79.66179,4.7921,-999.00,-999.00,-999.0,no,no,no,300534060651190,NOMAD,AWI/USIABP,MOSAiC,North
2020-07-16T20:30:02Z,1594931403,2020,20,30,198.8542,198.8542,79.6621,4.79634,-999.00,-999.00,-999.0,no,no,no,300534060651190,NOMAD,AWI/USIABP,MOSAiC,North
2020-07-16T20:39:59Z,1594931999,2020,20,40,198.8611,198.8611,79.66225,4.79989,-999.00,-999.00,-999.0,no,no,no,300534060651190,NOMAD,AWI/USIABP,MOSAiC,North
2020-07-16T20:50:03Z,1594932604,2020,20,50,198.8681,198.8681,79.66235,4.80396,-999.00,-999.00,-999.0,no,no,no,300534060651190,NOMAD,AWI/USIABP,MOSAiC,North
2020-07-16T21:00:00Z,1594933200,2020,21,0,198.875,198.875,79.66255,4.80764,-999.00,-999.00,-999.0,no,no,no,300534060651190,NOMAD,AWI/USIABP,MOSAiC,North
2020-07-16T21:09:56Z,1594933796,2020,21,10,198.8819,198.8819,79.66279,4.81126,-999.00,-999.00,-999.0,no,no,no,300534060651190,NOMAD,AWI/USIABP,MOSAiC,North
2020-07-16T21:20:00Z,1594934401,2020,21,20,198.8889,198.8889,79.66299,4.81465,-999.00,-999.00,-999.0,no,no,no,300534060651190,NOMAD,AWI/USIABP,MOSAiC,North
2020-07-16T21:29:57Z,1594934997,2020,21,30,198.8958,198.8958,79.66316,4.818,-999.00,-999.00,-999.0,no,no,no,300534060651190,NOMAD,AWI/USIABP,MOSAiC,North
2020-07-16T21:40:01Z,1594935602,2020,21,40,198.9028,198.9028,79.66347,4.82169,-999.00,-999.00,-999.0,no,no,no,300534060651190,NOMAD,AWI/USIABP,MOSAiC,North
2020-07-16T21:49:58Z,1594936198,2020,21,50,198.9097,198.9097,79.66379,4.8247,-999.00,-999.00,-999.0,no,no,no,300534060651190,NOMAD,AWI/USIABP,MOSAiC,North
2020-07-16T22:00:02Z,1594936803,2020,22,0,198.9167,198.9167,79.66413,4.82694,-999.00,-999.00,-999.0,no,no,no,300534060651190,NOMAD,AWI/USIABP,MOSAiC,North
2020-07-16T22:09:59Z,1594937399,2020,22,10,198.9236,198.9236,79.66433,4.8293,-999.00,-999.00,-999.0,no,no,no,300534060651190,NOMAD,AWI/USIABP,MOSAiC,North
2020-07-16T22:20:03Z,1594938004,2020,22,20,198.9306,198.9306,79.66448,4.83315,-999.00,-999.00,-999.0,no,no,no,300534060651190,NOMAD,AWI/USIABP,MOSAiC,North
2020-07-16T22:30:00Z,1594938600,2020,22,30,198.9375,198.9375,79.66471,4.8366,-999.00,-999.00,-999.0,no,no,no,300534060651190,NOMAD,AWI/USIABP,MOSAiC,North
2020-07-16T22:39:56Z,1594939196,2020,22,40,198.9444,198.9444,79.66494,4.83943,-999.00,-999.00,-999.0,no,no,no,300534060651190,NOMAD,AWI/USIABP,MOSAiC,North
2020-07-16T22:50:00Z,1594939801,2020,22,50,198.9514,198.9514,79.66506,4.84197,-999.00,-999.00,-999.0,no,no,no,300534060651190,NOMAD,AWI/USIABP,MOSAiC,North
2020-07-16T22:59:57Z,1594940397,2020,23,0,198.9583,198.9583,79.66535,4.84397,-999.00,-999.00,-999.0,no,no,no,300534060651190,NOMAD,AWI/USIABP,MOSAiC,North
2020-07-16T23:10:01Z,1594941002,2020,23,10,198.9653,198.9653,79.66549,4.84637,-999.00,-999.00,-999.0,no,no,no,300534060651190,NOMAD,AWI/USIABP,MOSAiC,North
2020-07-16T23:19:58Z,1594941598,2020,23,20,198.9722,198.9722,79.66569,4.84771,-999.00,-999.00,-999.0,no,no,no,300534060651190,NOMAD,AWI/USIABP,MOSAiC,North
2020-07-16T23:30:02Z,1594942203,2020,23,30,198.9792,198.9792,79.66591,4.84852,-999.00,-999.00,-999.0,no,no,no,300534060651190,NOMAD,AWI/USIABP,MOSAiC,North
2020-07-16T23:39:59Z,1594942799,2020,23,40,198.9861,198.9861,79.66629,4.85047,-999.00,-999.00,-999.0,no,no,no,300534060651190,NOMAD,AWI/USIABP,MOSAiC,North
2020-07-16T23:50:03Z,1594943404,2020,23,50,198.9931,198.9931,79.66672,4.8525,-999.00,-999.00,-999.0,no,no,no,300534060651190,NOMAD,AWI/USIABP,MOSAiC,North
2020-07-17T00:00:00Z,1594944000,2020,0,0,199.0,199.0,79.66684,4.85449,-999.00,-999.00,-999.0,no,no,no,300534060651190,NOMAD,AWI/USIABP,MOSAiC,North
2020-07-17T00:09:56Z,1594944596,2020,0,10,199.0069,199.0069,79.66711,4.85601,-999.00,-999.00,-999.0,no,no,no,300534060651190,NOMAD,AWI/USIABP,MOSAiC,North
2020-07-17T00:20:00Z,1594945201,2020,0,20,199.0139,199.0139,79.66742,4.85663,-999.00,-999.00,-999.0,no,no,no,300534060651190,NOMAD,AWI/USIABP,MOSAiC,North
2020-07-17T00:29:57Z,1594945797,2020,0,30,199.0208,199.0208,79.66778,4.85613,-999.00,-999.00,-999.0,no,no,no,300534060651190,NOMAD,AWI/USIABP,MOSAiC,North
2020-07-17T00:40:01Z,1594946402,2020,0,40,199.0278,199.0278,79.66807,4.85671,-999.00,-999.00,-999.0,no,no,no,300534060651190,NOMAD,AWI/USIABP,MOSAiC,North
2020-07-17T00:49:58Z,1594946998,2020,0,50,199.0347,199.0347,79.66843,4.85693,-999.00,-999.00,-999.0,no,no,no,300534060651190,NOMAD,AWI/USIABP,MOSAiC,North
2020-07-17T01:00:02Z,1594947603,2020,1,0,199.0417,199.0417,79.66879,4.8569,-999.00,-999.00,-999.0,no,no,no,300534060651190,NOMAD,AWI/USIABP,MOSAiC,North
2020-07-17T01:09:59Z,1594948199,2020,1,10,199.0486,199.0486,79.66911,4.85641,-999.00,-999.00,-999.0,no,no,no,300534060651190,NOMAD,AWI/USIABP,MOSAiC,North
2020-07-17T01:20:03Z,1594948804,2020,1,20,199.0556,199.0556,79.66962,4.85567,-999.00,-999.00,-999.0,no,no,no,300534060651190,NOMAD,AWI/USIABP,MOSAiC,North
2020-07-17T01:30:00Z,1594949400,2020,1,30,199.0625,199.0625,79.6702,4.85454,-999.00,-999.00,-999.0,no,no,no,300534060651190,NOMAD,AWI/USIABP,MOSAiC,North